• In Colombia
  • List of Countries
  • For 7 days
  • Water Temperature
  • Weather Map
  • Weather Widgets
  • user-avatar
    Login

    Hourly Weather Sydney

    Today, 27 January, Monday

    Time Temperature Precipitation Wind Pressure Humidity
    00:00 +27°C° 0.4 mm 4 mps 758 mmHg 81%
    01:00 +26°C° 0.4 mm 6 mps 759 mmHg 87%
    02:00 +24°C° 0.2 mm 6 mps 759 mmHg 86%
    03:00 +24°C° 0.2 mm 6 mps 759 mmHg 84%
    04:00 +23°C° 0 mm 4 mps 759 mmHg 86%
    05:00 +25°C° 0.5 mm 4 mps 759 mmHg 85%
    06:00 +25°C° 0.5 mm 4 mps 759 mmHg 84%
    07:00 +25°C° 0.5 mm 4 mps 760 mmHg 83%
    08:00 +26°C° 0 mm 4 mps 759 mmHg 80%
    09:00 +27°C° 0 mm 5 mps 759 mmHg 76%
    10:00 +29°C° 0 mm 4 mps 759 mmHg 71%
    11:00 +30°C° 0 mm 4 mps 759 mmHg 66%
    12:00 +32°C° 0 mm 4 mps 759 mmHg 61%
    13:00 +34°C° 0 mm 4 mps 758 mmHg 56%
    14:00 +33°C° 0 mm 4 mps 758 mmHg 58%
    15:00 +33°C° 0 mm 4 mps 757 mmHg 60%
    16:00 +33°C° 0 mm 4 mps 756 mmHg 61%
    17:00 +32°C° 0 mm 5 mps 757 mmHg 67%
    18:00 +29°C° 0 mm 6 mps 757 mmHg 72%
    19:00 +28°C° 0 mm 6 mps 758 mmHg 78%
    20:00 +27°C° 0.1 mm 5 mps 758 mmHg 80%
    21:00 +27°C° 0.1 mm 5 mps 758 mmHg 82%
    22:00 +26°C° 0.1 mm 4 mps 759 mmHg 85%
    23:00 +26°C° 0 mm 4 mps 758 mmHg 86%

    Tomorrow, 28 January, Tuesday

    Time Temperature Precipitation Wind Pressure Humidity
    00:00 +26°C° 0 mm 3 mps 758 mmHg 87%
    01:00 +25°C° 0 mm 3 mps 758 mmHg 88%
    02:00 +25°C° 0.1 mm 3 mps 758 mmHg 89%
    03:00 +25°C° 0.1 mm 2 mps 758 mmHg 89%
    04:00 +25°C° 0.1 mm 2 mps 758 mmHg 90%
    05:00 +26°C° 0 mm 2 mps 758 mmHg 88%
    06:00 +26°C° 0 mm 1 mps 758 mmHg 85%
    07:00 +27°C° 0 mm 1 mps 758 mmHg 82%
    08:00 +29°C° 0 mm 1 mps 758 mmHg 73%
    09:00 +31°C° 0 mm 1 mps 758 mmHg 64%
    10:00 +34°C° 0 mm 2 mps 758 mmHg 55%
    11:00 +35°C° 0 mm 2 mps 758 mmHg 53%
    12:00 +36°C° 0 mm 3 mps 757 mmHg 51%
    13:00 +36°C° 0 mm 3 mps 756 mmHg 49%
    14:00 +35°C° 0.2 mm 3 mps 756 mmHg 54%
    15:00 +34°C° 0.2 mm 3 mps 756 mmHg 59%
    16:00 +33°C° 0.2 mm 3 mps 756 mmHg 63%
    17:00 +30°C° 0.2 mm 5 mps 756 mmHg 70%
    18:00 +28°C° 0.2 mm 6 mps 757 mmHg 76%
    19:00 +26°C° 0.2 mm 7 mps 758 mmHg 83%
    20:00 +26°C° 0 mm 7 mps 759 mmHg 83%
    21:00 +24°C° 0 mm 7 mps 760 mmHg 82%
    22:00 +24°C° 0 mm 8 mps 760 mmHg 82%
    23:00 +24°C° 0 mm 7 mps 760 mmHg 81%

    Day after tomorrow, 29 January, Wednesday

    Time Temperature Precipitation Wind Pressure Humidity
    00:00 +23°C° 0 mm 7 mps 760 mmHg 79%
    01:00 +23°C° 0 mm 7 mps 760 mmHg 78%
    02:00 +23°C° 0 mm 6 mps 760 mmHg 77%
    03:00 +23°C° 0 mm 6 mps 760 mmHg 76%
    04:00 +22°C° 0 mm 6 mps 760 mmHg 76%
    05:00 +22°C° 0 mm 5 mps 761 mmHg 74%
    06:00 +23°C° 0 mm 5 mps 761 mmHg 73%
    07:00 +23°C° 0 mm 4 mps 762 mmHg 72%
    08:00 +25°C° 0 mm 4 mps 762 mmHg 66%
    09:00 +27°C° 0 mm 4 mps 762 mmHg 60%
    10:00 +28°C° 0 mm 4 mps 762 mmHg 54%
    11:00 +29°C° 0 mm 4 mps 762 mmHg 52%
    12:00 +29°C° 0 mm 4 mps 761 mmHg 50%
    13:00 +30°C° 0 mm 5 mps 761 mmHg 48%
    14:00 +29°C° 0 mm 5 mps 761 mmHg 50%
    15:00 +29°C° 0 mm 5 mps 760 mmHg 52%
    16:00 +29°C° 0 mm 5 mps 760 mmHg 53%
    17:00 +27°C° 0 mm 4 mps 760 mmHg 59%
    18:00 +26°C° 0 mm 3 mps 761 mmHg 65%
    19:00 +25°C° 0 mm 3 mps 761 mmHg 71%
    20:00 +24°C° 0 mm 2 mps 762 mmHg 74%
    21:00 +24°C° 0 mm 2 mps 762 mmHg 77%
    22:00 +23°C° 0 mm 1 mps 763 mmHg 79%
    23:00 +23°C° 0 mm 1 mps 762 mmHg 80%

    30 January, Thursday

    Time Temperature Precipitation Wind Pressure Humidity
    00:00 +23°C° 0 mm 1 mps 762 mmHg 80%
    01:00 +21°C° 0 mm 0 mps 762 mmHg 81%
    02:00 +23°C° 0 mm 1 mps 762 mmHg 80%
    03:00 +23°C° 0 mm 1 mps 762 mmHg 79%
    04:00 +23°C° 0 mm 1 mps 762 mmHg 78%
    05:00 +24°C° 0 mm 1 mps 762 mmHg 75%
    06:00 +25°C° 0 mm 1 mps 762 mmHg 72%
    07:00 +26°C° 0 mm 1 mps 762 mmHg 69%
    08:00 +27°C° 0 mm 1 mps 762 mmHg 65%
    09:00 +28°C° 0 mm 2 mps 762 mmHg 61%
    10:00 +29°C° 0 mm 2 mps 762 mmHg 57%
    11:00 +31°C° 0 mm 3 mps 762 mmHg 53%
    12:00 +33°C° 0 mm 3 mps 761 mmHg 48%
    13:00 +35°C° 0 mm 4 mps 761 mmHg 43%
    14:00 +34°C° 0 mm 5 mps 760 mmHg 48%
    15:00 +33°C° 0 mm 5 mps 760 mmHg 52%
    16:00 +33°C° 0 mm 6 mps 759 mmHg 56%
    17:00 +30°C° 0 mm 6 mps 759 mmHg 63%
    18:00 +29°C° 0 mm 5 mps 760 mmHg 69%
    19:00 +28°C° 0 mm 5 mps 760 mmHg 76%
    20:00 +27°C° 0 mm 5 mps 760 mmHg 79%
    21:00 +26°C° 0 mm 5 mps 760 mmHg 83%
    22:00 +26°C° 0 mm 4 mps 761 mmHg 86%
    23:00 +25°C° 0 mm 4 mps 761 mmHg 87%

    31 January, Friday

    Time Temperature Precipitation Wind Pressure Humidity
    00:00 +25°C° 0 mm 4 mps 760 mmHg 87%
    01:00 +25°C° 0 mm 4 mps 760 mmHg 88%
    02:00 +25°C° 0 mm 4 mps 760 mmHg 88%
    03:00 +23°C° 0 mm 4 mps 760 mmHg 89%
    04:00 +23°C° 0 mm 4 mps 760 mmHg 90%
    05:00 +25°C° 0 mm 4 mps 760 mmHg 85%
    06:00 +26°C° 0 mm 4 mps 761 mmHg 81%
    07:00 +27°C° 0 mm 3 mps 761 mmHg 76%
    08:00 +29°C° 0 mm 4 mps 761 mmHg 65%
    09:00 +33°C° 0 mm 4 mps 761 mmHg 53%
    10:00 +36°C° 0 mm 5 mps 761 mmHg 42%
    11:00 +37°C° 0 mm 5 mps 760 mmHg 40%
    12:00 +39°C° 0 mm 6 mps 760 mmHg 39%
    13:00 +40°C° 0 mm 7 mps 759 mmHg 37%
    14:00 +39°C° 0 mm 7 mps 759 mmHg 39%
    15:00 +39°C° 0 mm 7 mps 758 mmHg 42%
    16:00 +38°C° 0 mm 8 mps 758 mmHg 44%
    17:00 +35°C° 0 mm 8 mps 758 mmHg 50%
    18:00 +33°C° 0 mm 8 mps 758 mmHg 56%
    19:00 +31°C° 0 mm 8 mps 759 mmHg 62%
    20:00 +29°C° 0 mm 7 mps 759 mmHg 65%
    21:00 +28°C° 0 mm 6 mps 759 mmHg 67%
    22:00 +28°C° 0 mm 5 mps 760 mmHg 70%
    23:00 +27°C° 0 mm 5 mps 759 mmHg 71%

    1 February, Saturday

    Time Temperature Precipitation Wind Pressure Humidity
    00:00 +27°C° 0 mm 5 mps 759 mmHg 71%
    01:00 +27°C° 0 mm 4 mps 759 mmHg 72%
    02:00 +27°C° 0 mm 4 mps 758 mmHg 73%
    03:00 +27°C° 0 mm 4 mps 758 mmHg 73%
    04:00 +26°C° 0 mm 3 mps 758 mmHg 73%
    05:00 +27°C° 0 mm 3 mps 759 mmHg 69%
    06:00 +28°C° 0 mm 3 mps 759 mmHg 65%
    07:00 +29°C° 0 mm 3 mps 759 mmHg 61%
    08:00 +33°C° 0 mm 3 mps 759 mmHg 51%
    09:00 +37°C° 0 mm 3 mps 759 mmHg 41%
    10:00 +40°C° 0 mm 3 mps 759 mmHg 32%
    11:00 +42°C° 0 mm 4 mps 758 mmHg 29%
    12:00 +45°C° 0 mm 5 mps 758 mmHg 26%
    13:00 +46°C° 0 mm 5 mps 757 mmHg 23%
    14:00 +45°C° 0 mm 6 mps 757 mmHg 26%
    15:00 +44°C° 0 mm 7 mps 756 mmHg 28%
    16:00 +43°C° 0 mm 8 mps 756 mmHg 31%
    17:00 +40°C° 0 mm 8 mps 756 mmHg 36%
    18:00 +38°C° 0 mm 7 mps 756 mmHg 41%
    19:00 +35°C° 0 mm 7 mps 756 mmHg 47%
    20:00 +34°C° 0 mm 7 mps 756 mmHg 49%
    21:00 +33°C° 0 mm 6 mps 756 mmHg 52%
    22:00 +32°C° 0 mm 6 mps 757 mmHg 55%
    23:00 +32°C° 0 mm 5 mps 756 mmHg 55%
    Show more